Terminal Aerodrome Forecast
Issued by NWS San Angelo, TX

Home | Current Version | Previous Version | Text Only | Print | Product List | Glossary On
Versions: 1 2 3 4 5 6 7 8 9 10 11 12 13 14 15 16 17 18 19 20 21 22 23 24 25
132
FTUS44 KSJT 040105 AAA
TAFABI
TAF AMD
KABI 040105Z 0401/0424 04009KT 5SM -DZ BR OVC004
     FM040700 01006KT 2SM -DZ BR OVC004=

USA.gov is the U.S. government's official web portal to all federal, state and local government web resources and services.